Home   Weather   Haugesund   Past weeks

Flag for Norway Past Weather in Haugesund, Norway — Yesterday and Last 2 Weeks

Now
48 °F

Overcast.


Feels Like: 43 °F
Forecast: 47 / 49 °F
Wind: 12 mph from Southwest

Location: Karmoy

Current Time: Dec 8, 2016 at 11:04:25 pm

Latest Report: Dec 8, 2016 at 10:20 pm


Visibility: 4 mi

Pressure: 29.98 "Hg

Humidity: 94%

Dew Point: 46 °F

Location of HaugesundLocation

Past Weather in Haugesund — Graph

°F

Haugesund Temperature Yesterday

Maximum temperature yesterday: 50 °F (at 5:50 pm)
Minimum temperature yesterday: 43 °F (at 12:20 am)
Average temperature yesterday: 47 °F

High & Low Weather Summary for the Past Weeks

 TemperatureHumidityPressure
High52 °F (Dec 8, 1:50 am)100% (Nov 25, 6:20 pm)30.51 "Hg (Nov 25, 6:20 pm)
Low27 °F (Nov 28, 2:50 am)57% (Nov 27, 5:20 am)29.68 "Hg (Dec 7, 11:50 pm)
Average43 °F85%30.14 "Hg
* Reported Nov 23 9:20 pm — Dec 8 9:50 pm, Haugesund, Weather by CustomWeather, © 2016

Note: Actual official high and low records may vary slightly from our data, if they occured in-between our weather recording intervals... More about our weather records

Advertising

Haugesund Weather History for the Previous 24 Hours

Scroll right to see more
 ConditionsComfort  
Time TempWeatherWind HumidityBarometerVisibility
9:50 pm
Thu, Dec 8
48 °FPartly cloudy.9 mph94%29.98 "HgN/A
9:20 pm48 °FPassing clouds.7 mph87%29.95 "HgN/A
8:50 pm48 °FPartly cloudy.7 mph94%29.95 "Hg5 mi
8:20 pm48 °FPartly cloudy.6 mph94%29.95 "Hg5 mi
7:50 pm46 °FPartly cloudy.1 mph93%29.95 "HgN/A
7:20 pm48 °FPartly cloudy.2 mph87%29.95 "HgN/A
6:50 pm48 °FPartly cloudy.6 mph87%29.95 "HgN/A
6:20 pm48 °FPartly cloudy.8 mph94%29.95 "HgN/A
5:50 pm48 °FPartly cloudy.7 mph94%29.95 "HgN/A
5:20 pm48 °FPassing clouds.8 mph94%29.95 "Hg4 mi
4:50 pm48 °FFog.6 mph94%29.95 "Hg3 mi
4:20 pm50 °FPartly cloudy.14 mph88%29.95 "Hg5 mi
3:50 pm50 °FDrizzle. Mostly cloudy.15 mph88%29.95 "Hg4 mi
3:20 pm50 °FBroken clouds.17 mph88%29.95 "Hg4 mi
2:50 pm50 °FFog.18 mph88%29.95 "Hg3 mi
2:20 pm50 °FBroken clouds.18 mph88%29.95 "Hg4 mi
1:50 pm50 °FMore clouds than sun.20 mph88%29.95 "Hg4 mi
12:50 pm50 °FMostly cloudy.17 mph88%29.92 "Hg4 mi
12:20 pm50 °FMore clouds than sun.20 mph88%29.92 "Hg3 mi
11:50 am50 °FBroken clouds.21 mph88%29.92 "Hg4 mi
11:20 am50 °FPartly sunny.22 mph88%29.89 "Hg4 mi
10:50 am50 °FFog.20 mph94%29.89 "Hg3 mi
10:20 am50 °FFog.21 mph88%29.86 "Hg3 mi
9:50 am50 °FFog.20 mph88%29.86 "Hg3 mi
9:20 am50 °FFog.22 mph88%29.83 "Hg3 mi
8:50 am50 °FScattered showers. Partly cloudy.23 mph88%29.83 "Hg3 mi
8:20 am50 °FPartly cloudy.23 mph88%29.80 "Hg4 mi
7:50 am50 °FPassing clouds.23 mph94%29.80 "Hg4 mi
7:20 am50 °FPassing clouds.26 mph94%29.77 "Hg4 mi
6:50 am50 °FDrizzle. Overcast.26 mph94%29.77 "Hg4 mi
6:20 am52 °FOvercast.28 mph88%29.77 "Hg4 mi
5:50 am52 °FMostly cloudy.26 mph88%29.74 "Hg4 mi
5:20 am52 °FPartly cloudy.28 mph88%29.74 "Hg4 mi
4:50 am50 °FDrizzle. Mostly cloudy.26 mph100%29.74 "Hg1 mi
4:20 am52 °FPartly cloudy.26 mph88%29.74 "Hg4 mi
3:50 am50 °FCool.25 mph94%29.74 "Hg4 mi
3:20 am50 °FPassing clouds.23 mph94%29.74 "Hg4 mi
2:50 am52 °FOvercast.24 mph88%29.71 "Hg4 mi
2:20 am52 °FPassing clouds.25 mph88%29.71 "Hg4 mi
1:50 am52 °FCool.28 mph88%29.71 "Hg4 mi
1:20 am50 °FPassing clouds.21 mph94%29.71 "Hg4 mi
12:50 am50 °FFog.21 mph94%29.71 "Hg3 mi
12:20 am50 °FFog.17 mph94%29.71 "Hg3 mi
11:50 pm
Wed, Dec 7
50 °FFog.16 mph94%29.68 "Hg3 mi
11:20 pm50 °FFog.16 mph94%29.71 "Hg3 mi
Weather by CustomWeather, © 2016

See weather overviewHow to use our weather pages